GFSSE_con_3kmhel_060.txt.gz
Helicity
65 100 133 176 206 196 170 143 123 111 99 102 99 95 76 62 45 40 49 64 62 49 51 50 52 57 52 42 31 18 -7 -24 -20 18 57 73 77 84 96 93 82 80 104
131 56 151 171 183 181 167 139 123 112 96 101 102 94 83 69 43 39 66 66 54 43 40 37 39 38 33 17 2 -15 -27 -43 -62 -75 -13 59 61 60 56 57 61 60 84
30 17 138 209 212 179 159 142 125 106 95 103 102 96 83 64 48 64 71 70 47 38 35 36 35 32 25 14 2 -4 1 -4 -59 -101 -31 -15 27 49 71 76 65 78 75
134 93 126 213 252 223 177 137 114 99 98 107 105 102 80 70 62 65 70 62 39 33 34 35 31 26 18 2 -6 5 34 97 104 58 35 23 30 64 44 62 82 72 72
219 162 184 258 211 206 174 137 114 112 112 112 116 101 77 74 67 62 63 52 38 36 28 24 20 14 10 -3 -2 23 53 84 46 80 115 40 11 40 59 59 61 64 70
209 248 223 269 223 180 159 137 120 115 112 128 123 91 79 68 73 67 67 54 41 30 23 19 17 12 11 -3 -10 10 48 41 50 25 18 26 16 44 46 57 56 61 79
227 275 294 247 262 214 164 142 128 128 133 139 124 100 86 76 84 78 65 56 39 28 24 20 14 14 13 14 -4 26 103 109 34 34 13 6 4 38 48 57 60 70 65
206 229 409 286 211 183 181 152 157 151 156 158 139 113 129 111 97 87 75 66 47 35 21 19 15 16 15 11 -1 20 40 49 40 34 18 -14 25 37 45 53 55 61 65
231 333 -7 195 327 244 162 172 204 188 193 189 172 161 188 173 127 91 81 63 45 30 23 18 15 12 16 13 9 9 43 46 48 8 39 -10 31 40 43 50 53 60 63
140 172 274 255 221 65 108 126 152 268 249 186 165 173 191 142 123 91 77 63 43 36 28 22 10 6 6 4 -4 3 40 75 65 91 48 -6 38 40 48 49 51 55 60
142 200 238 313 253 359 433 139 171 130 154 129 131 129 140 71 82 78 75 67 59 45 20 7 -6 -17 -21 -22 -10 15 3 44 67 83 31 41 49 43 37 44 46 48 52
229 251 251 282 221 300 244 335 334 206 148 75 80 116 122 80 76 75 78 74 68 38 3 -14 -16 -18 -0 -19 -9 1 16 21 49 57 43 56 52 53 48 46 53 60 66
250 318 374 390 286 257 220 265 215 262 119 18 103 142 114 102 56 56 71 61 41 28 -9 -15 -13 -22 13 30 25 26 24 26 51 45 52 66 67 71 66 56 59 70 79
354 433 473 540 516 488 531 546 468 233 67 114 60 94 61 62 17 32 64 30 5 -15 -16 -11 24 24 44 28 22 35 40 50 53 39 52 83 62 82 75 70 67 74 89
302 431 448 496 466 642 561 534 581 207 133 150 102 133 21 59 10 34 14 6 -7 -14 1 33 45 33 33 29 36 29 31 29 28 59 45 75 73 77 74 92 92 85 84
234 279 349 417 541 683 739 586 301 254 291 333 114 45 -30 -20 15 8 -19 -2 -17 66 37 51 46 30 12 47 40 33 45 33 16 71 56 80 114 107 114 114 111 103 97
199 265 353 451 479 505 396 338 215 355 274 43 23 -114 -59 -42 7 25 37 7 29 54 72 48 89 41 56 22 44 29 46 33 48 74 117 101 126 170 175 173 184 194 181
122 123 158 173 146 150 129 161 24 -71 7 -152 -202 -116 -69 15 31 22 -2 -2 98 77 84 83 86 54 39 55 63 42 78 75 84 70 62 137 137 151 175 215 189 178 170
22 3 -17 20 61 76 30 -117 -194 -233 -245 -157 -32 -32 -37 -34 -28 -25 5 83 87 84 106 79 85 41 80 87 106 96 111 105 87 66 115 78 149 210 221 190 170 143 145
-14 1 8 -18 -50 -92 -204 -105 -4 -10 -39 -57 -50 -50 -41 -12 -21 60 63 69 92 108 147 123 99 98 126 107 74 140 135 111 112 123 119 112 113 126 157 201 169 160 155
-4 -39 -34 -59 -83 -108 -87 -44 -58 -50 -72 -83 -79 -55 -21 -16 -5 28 70 42 132 169 184 121 136 151 117 165 184 142 151 158 146 145 137 124 103 160 156 126 169 172 213
72 20 12 -44 -37 -29 -12 -18 -28 -16 -30 -38 -54 -33 42 50 3 26 49 77 134 179 136 184 167 178 153 182 190 135 195 247 237 174 152 161 131 130 150 198 185 190 203
131 68 56 43 12 -14 -40 10 -19 -27 -21 -5 2 -7 62 93 82 87 140 182 176 146 152 201 221 191 189 207 191 210 240 254 273 200 152 123 191 199 151 157 154 198 184
169 126 93 73 26 -4 -52 40 44 42 50 74 61 58 130 149 121 97 147 159 290 284 233 219 229 163 199 240 308 206 284 280 289 210 246 182 178 235 188 159 153 170 204
110 162 103 48 46 60 19 -59 11 64 75 48 71 117 270 233 147 131 159 195 247 301 259 341 311 227 129 133 300 393 308 262 165 187 248 228 209 196 174 200 200 268 329
102 123 103 49 43 43 94 21 13 70 117 90 108 138 263 267 191 138 155 187 231 272 347 376 247 294 282 164 183 365 310 275 264 309 302 293 220 171 149 213 257 297 300

GFSSE_con_3kmhel_063.txt.gz
Helicity
144 45 96 106 157 177 194 184 165 145 120 111 108 99 102 108 108 112 117 112 97 79 70 64 64 71 77 69 60 42 24 33 53 77 72 74 68 71 74 79 82 79 99
159 143 55 103 131 139 165 170 156 139 123 99 88 87 98 105 93 98 99 94 76 73 65 62 60 52 50 52 39 11 -32 -13 43 57 65 80 77 62 67 56 51 58 83
139 147 62 66 125 143 143 147 134 117 106 89 84 93 107 98 97 91 87 79 72 64 60 51 43 38 40 39 50 42 10 -54 25 44 50 16 31 63 68 68 68 58 64
-28 65 78 254 96 155 145 132 121 105 92 81 89 103 118 115 104 95 85 69 59 51 45 42 39 32 37 50 66 79 88 163 152 73 39 33 36 50 47 53 52 57 67
-9 50 216 43 121 140 128 115 112 116 101 89 98 107 116 106 111 89 69 55 43 39 37 34 28 28 37 57 100 115 74 97 104 62 34 26 10 30 44 48 56 54 59
29 120 111 120 182 187 157 169 160 127 108 95 107 99 106 103 104 86 59 48 42 38 30 27 25 26 35 77 126 145 40 65 49 53 19 12 -6 29 40 45 50 54 65
173 170 134 227 224 226 188 165 171 137 112 99 103 99 109 111 97 81 61 50 36 26 24 21 25 32 37 74 130 150 23 30 3 3 -9 -9 7 39 43 42 46 54 72
296 296 256 318 228 205 183 187 198 166 119 104 105 91 114 117 96 89 70 47 35 28 27 27 28 36 44 71 128 144 72 30 12 -10 -11 -11 29 41 45 49 56 64 72
277 271 235 197 82 506 435 309 271 240 200 129 116 101 117 120 103 93 67 41 38 29 21 24 21 32 48 89 141 155 100 25 4 -31 -5 -20 30 36 42 49 55 64 71
203 158 131 194 221 66 -62 235 126 170 182 206 210 162 173 140 118 94 66 47 31 29 20 13 8 37 52 100 131 179 137 90 9 -19 -13 -14 26 30 39 42 39 49 53
120 135 205 328 274 225 194 299 135 72 154 173 218 248 209 164 133 102 43 23 39 15 2 5 5 14 57 88 101 140 79 18 9 -28 -30 13 24 27 32 40 42 50 54
164 199 206 278 264 238 156 113 148 133 135 151 158 166 186 166 109 86 62 17 29 8 17 -5 17 23 48 55 55 113 42 19 2 -19 -15 30 31 34 35 37 36 46 65
155 199 224 265 247 207 198 208 187 272 265 310 158 198 98 131 91 66 63 24 9 11 7 2 -8 14 39 53 42 76 53 26 14 3 -2 37 40 39 39 39 47 54 67
276 320 308 306 230 208 261 189 192 254 174 136 87 88 71 74 56 71 19 11 33 3 -5 -7 -18 15 36 33 36 46 54 23 24 2 17 46 58 58 55 43 43 62 78
322 326 365 339 393 307 331 248 322 348 152 141 110 90 54 29 35 -4 6 19 22 3 3 -8 18 6 19 32 45 47 55 56 41 16 14 73 68 70 64 71 71 84 90
255 316 356 357 321 442 364 514 382 388 304 237 190 142 99 44 -24 -27 -30 19 5 -4 -10 16 20 8 19 40 48 43 52 75 36 50 34 23 65 88 96 98 96 90 79
216 227 323 329 353 457 513 505 407 454 448 198 364 272 -45 -68 -68 -51 11 10 5 -4 7 56 25 30 38 39 27 34 44 67 89 57 38 40 63 104 127 129 97 99 116
168 159 212 363 436 389 384 336 470 187 204 377 366 -51 -55 -89 -60 -25 11 24 0 80 92 77 75 59 40 54 23 32 44 65 68 91 65 72 101 124 144 168 156 144 138
74 134 169 187 178 164 137 86 103 72 117 53 -63 -82 -152 -109 -68 40 33 6 55 114 107 102 71 58 51 73 81 72 89 92 74 73 105 106 109 152 158 167 146 125 117
18 41 63 47 60 63 32 38 48 -57 -164 -105 -25 -94 -101 -75 -29 -2 23 11 93 115 118 117 87 85 67 125 130 138 128 117 79 101 109 121 145 179 179 161 144 133 129
8 -1 3 1 0 -21 -76 -123 -147 -182 -234 -189 -151 -91 -47 -56 -21 26 49 85 87 121 148 149 137 107 109 166 186 166 157 128 131 152 143 128 138 138 167 154 151 153 154
12 14 4 -22 -42 -82 -83 -117 -126 -114 -153 -167 -112 -73 -32 13 27 39 73 69 114 181 188 184 196 206 152 159 196 236 250 250 191 194 188 166 150 173 164 187 169 184 204
2 -21 -22 -42 -67 -119 -92 -77 -72 -71 -79 -59 -69 -70 -19 51 57 73 51 41 100 182 269 258 205 225 193 168 158 261 254 285 290 203 157 191 180 210 269 255 222 231 223
43 5 1 -32 -40 -50 -21 -21 -20 -1 8 -6 -4 7 32 81 110 108 110 102 181 227 242 230 258 271 301 319 186 233 328 257 256 232 218 142 193 244 230 234 237 229 194
144 96 60 22 6 -1 -5 -12 -13 7 46 49 52 61 72 117 139 137 140 170 235 252 259 268 297 312 410 363 261 352 434 204 129 160 186 177 223 199 217 255 238 224 240
134 120 109 117 44 7 -2 -26 -49 73 77 82 88 82 104 166 186 170 169 200 245 264 245 293 345 400 402 358 460 382 411 228 211 183 272 230 212 190 268 312 233 218 273

GFSSE_con_3kmhel_066.txt.gz
Helicity
40 54 131 225 198 99 155 209 205 186 185 169 167 173 174 163 153 147 136 138 139 113 93 99 111 115 122 120 103 95 100 99 72 47 57 64 71 74 71 70 77 75 83
5 55 222 243 302 133 140 173 176 162 149 140 154 147 151 157 154 150 152 143 118 98 96 102 108 114 111 91 67 61 68 72 95 93 82 86 81 76 69 59 61 60 81
90 27 103 182 215 158 126 167 160 139 127 125 137 131 147 160 170 159 144 130 116 101 91 96 104 100 77 55 25 9 52 50 63 67 69 40 44 69 76 74 59 68 85
15 49 88 175 290 424 72 135 142 114 107 108 115 118 140 160 169 150 133 111 94 78 76 76 82 76 55 40 43 50 101 83 88 92 72 44 39 51 51 58 61 65 79
64 162 189 186 145 357 328 56 155 141 128 116 118 128 133 149 153 132 114 97 80 67 65 61 71 72 62 36 40 94 95 95 75 64 37 23 10 33 51 61 61 70 65
-0 88 96 257 284 258 204 305 150 121 99 105 103 112 108 130 127 113 98 87 71 61 52 60 90 109 104 67 70 64 48 53 55 41 25 25 7 44 48 51 57 72 76
101 186 146 159 138 124 123 119 162 161 114 117 117 114 101 114 114 113 93 83 67 58 61 77 121 140 133 99 64 46 30 41 17 26 25 15 14 38 43 46 55 70 68
201 291 433 428 221 171 84 224 189 180 192 141 123 111 95 113 118 107 90 78 67 64 67 86 130 136 105 86 63 33 26 15 -9 2 3 -6 26 36 38 47 56 56 60
255 268 266 182 203 98 55 243 245 293 153 151 116 113 115 129 117 113 93 81 76 66 68 82 114 140 111 61 54 36 32 5 -34 -28 -8 -21 24 30 35 47 51 56 61
253 268 211 204 6 -326 -167 172 386 110 115 137 148 162 158 150 127 114 85 82 72 62 68 68 119 161 178 101 75 42 20 4 -26 -20 -14 -18 20 34 38 50 49 53 61
133 178 196 173 235 97 99 -31 83 145 168 203 207 191 186 171 143 103 66 57 37 38 46 99 116 141 179 129 67 51 24 -34 -31 -38 -20 17 26 30 29 37 37 36 36
77 139 194 206 222 177 191 126 207 22 135 198 225 222 181 131 108 83 52 59 62 65 49 80 87 92 120 93 33 49 -2 -16 -37 -36 -14 13 24 30 29 26 37 41 46
145 175 187 201 186 184 156 44 -97 40 174 177 154 183 143 144 113 90 71 70 30 64 35 46 34 61 77 73 60 43 25 -2 -25 -36 -21 11 22 29 37 35 41 63 60
170 199 211 151 149 120 73 -3 15 71 155 175 163 125 146 153 105 54 13 20 31 34 47 11 31 32 59 78 60 40 16 9 -5 -26 -29 15 29 38 43 49 51 53 53
209 265 264 208 159 152 121 89 108 164 262 251 252 169 76 83 22 38 -10 10 40 18 30 34 6 9 42 66 69 40 17 17 13 -13 -24 19 34 48 45 41 44 64 64
234 226 263 208 156 140 84 161 206 259 233 263 163 159 136 88 44 22 31 7 25 18 16 20 -1 22 26 37 43 40 25 22 21 10 7 17 53 46 51 58 57 56 57
208 229 313 221 188 168 194 314 229 351 262 281 229 108 123 31 8 1 -6 28 -6 19 44 36 27 26 23 16 27 37 58 44 40 38 33 35 30 38 64 87 75 65 71
170 153 146 198 151 161 241 233 416 311 358 265 179 135 113 11 -3 -18 11 -19 -22 54 47 26 44 30 21 22 35 37 53 67 65 61 60 41 36 61 83 117 111 115 115
101 146 125 128 201 219 242 329 337 289 347 244 172 111 171 134 -11 16 -11 -29 44 46 67 70 60 77 57 38 37 56 55 77 84 83 67 60 65 101 123 150 158 139 127
60 118 127 213 226 199 193 208 199 287 227 189 196 274 187 -49 55 51 -4 22 50 103 95 95 105 84 71 64 74 80 84 80 95 125 118 110 95 129 153 156 140 128 128
33 53 76 69 71 119 148 61 -11 -39 58 96 180 95 51 -14 -54 -33 24 31 84 119 119 128 127 92 74 112 162 129 157 139 125 134 174 168 160 161 171 152 167 142 138
50 22 10 20 41 28 12 -91 -83 -45 -98 -93 -53 -82 -88 -60 -69 -69 -32 -1 80 130 125 140 172 155 117 163 201 237 192 222 177 162 160 175 167 166 181 165 182 166 177
39 12 -13 -7 -7 -11 -27 -39 -47 -42 -133 -242 -242 -256 -157 -81 -73 -49 -5 85 60 132 110 141 171 182 149 180 229 264 330 352 237 265 213 174 131 177 188 192 186 193 204
37 13 -18 -20 -23 -51 -58 -55 -54 -95 -129 -250 -228 -198 -143 -89 -47 13 29 28 21 96 107 167 217 238 232 212 292 376 404 341 290 331 292 200 109 163 196 210 250 248 264
67 31 -9 -30 -53 -55 -59 -70 -73 -67 -95 -151 -172 -129 -98 -80 -27 27 49 54 80 122 130 163 251 272 281 268 315 370 405 398 418 438 372 211 127 166 193 189 221 228 268
82 48 13 -1 -54 -56 -31 -12 9 -20 -78 -82 -86 -60 -53 -31 25 60 86 108 119 164 195 242 253 250 276 308 327 398 320 440 393 386 286 170 170 163 210 244 236 232 302

GFSSE_con_3kmhel_069.txt.gz
Helicity
55 73 150 266 136 231 226 203 141 252 231 202 232 259 271 259 224 186 164 155 156 145 140 130 111 106 94 93 103 111 109 76 71 66 76 81 73 77 83 100 88 70 96
30 32 145 224 241 356 286 173 203 206 170 184 234 250 253 234 199 178 165 162 165 154 140 128 117 101 97 94 94 93 99 108 86 87 88 83 55 52 62 67 75 71 103
51 17 93 243 194 284 403 315 185 139 162 176 196 201 172 164 169 173 167 174 181 161 141 106 86 84 82 70 65 61 76 98 113 104 78 49 52 66 71 78 80 97 92
-12 27 67 143 234 298 378 411 165 89 149 150 152 134 123 138 155 164 163 158 150 133 127 104 72 46 23 38 50 57 67 87 103 91 75 42 46 65 66 72 82 69 95
-5 59 96 128 208 239 313 347 375 159 135 161 175 131 126 138 156 164 156 144 132 135 114 87 61 38 37 62 78 75 80 94 105 83 61 49 42 63 74 81 74 82 72
47 106 154 109 125 247 171 222 379 261 90 177 160 141 119 128 149 159 154 148 143 138 122 85 51 48 50 58 64 64 65 66 63 35 20 29 19 54 60 68 69 66 65
80 91 101 172 269 324 434 194 336 418 150 175 165 142 121 129 156 165 163 160 157 155 138 87 68 74 65 53 35 33 38 43 33 36 33 17 21 51 63 58 50 51 52
164 225 298 407 364 300 228 187 236 209 69 166 169 137 130 132 155 161 160 147 155 158 124 81 82 74 56 33 24 16 14 20 26 21 15 11 39 52 55 52 50 46 47
270 359 414 433 273 164 -116 178 224 359 193 90 169 164 143 139 150 146 141 134 156 161 139 111 87 58 52 39 30 12 -1 4 -3 2 1 -12 25 32 34 33 34 38 40
249 275 286 280 170 273 -65 -90 129 183 88 132 271 225 199 163 138 133 124 121 147 165 185 139 81 35 36 35 27 10 1 -1 -2 -3 -20 -21 9 22 27 28 33 38 43
178 129 127 176 208 244 122 -4 141 82 196 229 300 258 213 180 127 113 99 97 129 179 210 158 89 43 38 22 22 17 -1 -39 -19 -27 -34 -0 9 18 23 30 27 30 31
131 133 88 112 161 232 188 148 50 159 96 142 222 209 235 162 130 128 112 115 128 152 187 159 102 86 67 20 18 26 -9 -25 -24 -28 -32 -2 12 20 23 20 10 16 32
85 95 107 109 130 129 179 236 189 16 20 187 206 199 194 185 170 148 146 122 122 134 142 134 104 84 38 34 33 17 -4 -20 -33 -29 -30 -7 7 13 14 16 16 35 37
91 75 102 127 120 107 129 157 -16 -48 -47 37 214 129 142 175 188 131 98 64 73 92 66 129 126 78 86 54 39 27 -2 -15 -34 -44 -35 -15 -3 12 16 19 43 32 34
140 118 126 139 113 110 79 15 -93 -41 -13 191 135 87 92 152 111 84 69 73 84 8 110 82 71 61 86 63 37 24 10 2 -25 -34 -45 -15 8 15 18 22 31 37 38
130 163 127 109 105 92 55 22 30 31 144 155 68 164 113 98 73 70 51 60 19 62 66 24 28 51 52 49 44 26 17 5 -8 -10 -31 -25 13 22 15 15 34 49 44
109 158 156 134 177 69 40 72 44 62 128 110 179 173 128 64 78 37 44 45 4 77 46 55 49 39 35 43 39 27 26 10 14 8 -5 -4 13 38 35 23 43 45 42
105 135 103 114 190 41 50 148 110 124 176 192 176 192 91 101 86 66 37 -5 50 80 42 38 38 38 26 21 37 32 33 27 29 34 37 45 51 54 40 40 47 59 58
80 87 15 147 118 76 117 247 253 276 257 204 223 212 112 186 65 58 16 19 88 68 32 45 53 58 25 12 4 13 28 48 52 70 69 80 73 69 63 40 62 93 102
74 71 73 86 85 148 127 188 264 329 300 180 179 168 186 165 100 42 21 67 62 46 60 53 70 65 52 53 39 24 30 52 70 83 98 101 84 75 77 84 110 132 108
104 110 97 53 64 117 131 184 198 349 347 280 262 173 120 54 66 17 55 70 82 75 53 76 89 75 92 94 97 74 63 63 85 124 153 106 113 95 106 111 126 143 117
128 97 42 50 102 21 54 69 139 138 161 214 223 133 179 179 179 29 82 53 58 84 100 125 138 129 106 137 132 126 113 131 161 174 183 187 159 178 146 116 135 140 133
86 86 21 -7 20 60 50 9 -43 -29 18 -93 -11 -52 103 151 10 -54 -24 20 52 116 111 117 126 137 136 144 162 174 171 171 181 239 215 250 250 234 165 145 146 148 172
83 50 31 5 -7 1 -9 -17 -83 -96 -49 -31 -60 -56 -4 4 -75 -90 -37 14 104 28 21 73 126 157 194 182 192 203 271 310 185 212 174 197 300 270 208 134 148 161 191
105 80 39 33 11 -19 -21 -42 -50 -69 -88 -80 -113 -191 -162 -135 -144 -79 -51 -35 -26 14 33 49 97 139 194 231 276 248 256 272 346 326 256 266 310 256 184 189 156 192 215
81 88 64 49 19 -8 -27 -31 -29 -34 -63 -80 -137 -223 -254 -231 -151 -85 -53 -37 22 57 86 133 133 199 226 264 278 288 298 256 278 378 318 246 270 164 137 160 158 173 178

GFSSE_con_3kmhel_072.txt.gz
Helicity
63 94 200 269 231 227 230 250 264 277 246 232 256 237 240 247 235 197 196 198 180 145 158 142 112 86 79 87 92 109 136 122 104 94 90 79 76 95 86 92 106 97 113
127 138 184 164 236 224 281 308 248 257 206 267 241 269 235 229 222 204 207 195 170 152 133 117 101 90 84 84 97 97 95 96 91 86 70 78 75 85 94 94 111 110 124
79 160 203 202 185 222 234 318 266 222 318 283 234 229 240 239 201 191 191 184 175 148 121 98 77 61 67 78 90 99 117 143 106 94 106 73 53 92 99 97 97 94 87
149 103 113 141 162 160 217 282 269 314 289 201 211 229 225 216 179 183 177 172 160 128 101 73 67 61 72 81 80 92 116 127 97 97 96 73 73 90 99 91 98 88 80
107 93 96 165 179 182 204 188 178 251 294 255 185 199 185 179 151 150 164 168 144 111 85 63 62 88 74 76 80 84 99 107 111 93 66 59 53 62 80 77 73 66 61
88 158 193 239 300 278 325 339 116 119 412 288 167 152 149 172 138 126 147 152 141 110 68 51 35 47 72 79 77 78 87 94 87 68 41 47 31 56 70 62 46 57 69
120 161 211 367 435 353 417 334 334 116 304 324 157 154 171 186 149 114 145 160 137 94 67 71 59 65 73 65 54 58 62 63 44 38 27 30 41 63 52 52 46 49 46
181 247 230 277 347 322 360 341 78 74 208 336 347 166 227 203 171 133 168 153 125 84 76 75 71 57 42 28 22 37 48 39 33 26 28 26 32 43 45 33 40 28 38
174 296 268 268 243 281 236 205 82 112 277 273 330 157 218 225 205 185 171 128 120 101 96 85 57 42 28 19 11 16 23 33 6 3 5 -12 26 27 26 23 26 33 31
170 246 274 211 113 101 76 44 192 118 255 270 257 138 292 317 216 167 141 131 108 96 58 43 40 34 30 15 5 9 21 11 -6 0 -14 -17 19 20 24 28 32 27 26
177 172 199 176 119 27 124 107 128 133 166 179 113 256 236 280 247 183 162 146 124 92 48 46 59 40 31 10 15 22 3 -15 -1 -2 -13 5 15 22 27 23 18 20 19
125 99 66 48 42 72 185 155 80 237 415 284 200 217 294 312 211 248 185 165 145 122 85 44 61 62 48 15 28 13 3 -5 2 -6 -17 0 16 25 19 12 4 9 9
114 98 79 90 116 140 173 150 168 85 108 247 185 189 323 246 272 257 222 182 166 143 117 82 59 44 -1 2 15 -7 -9 -12 -15 -23 -30 -18 7 21 14 -1 4 13 14
91 85 109 101 119 136 136 156 124 123 173 193 141 170 267 250 196 208 181 145 122 96 78 42 7 36 38 41 12 10 4 -13 -28 -29 -36 -24 -9 8 19 8 13 14 11
72 84 97 99 103 117 98 139 196 252 262 21 41 166 212 170 151 176 136 107 131 79 84 72 86 76 62 36 19 22 2 -11 -22 -25 -41 -23 -13 -1 3 25 12 5 12
72 79 115 105 99 78 90 113 113 71 -22 33 104 138 150 119 123 175 102 143 82 68 69 22 76 74 39 28 27 28 14 -9 -14 -25 -47 -41 -8 4 10 13 31 23 22
96 133 133 60 112 69 98 70 52 81 163 191 257 175 195 161 154 96 172 61 64 71 -15 129 89 61 49 46 41 16 7 -1 5 -4 -22 -22 -9 13 12 8 23 27 32
100 98 134 101 109 152 97 84 118 145 191 221 233 192 182 220 216 102 33 45 62 11 6 81 48 50 60 43 28 12 7 23 18 16 11 1 5 21 29 29 19 24 34
69 128 168 58 125 138 124 105 126 132 170 173 263 221 168 202 103 40 52 31 31 5 17 84 46 51 41 38 26 24 24 27 18 19 22 27 29 43 51 38 35 25 33
67 133 90 34 122 113 105 198 145 116 148 89 97 195 121 78 60 28 39 54 32 22 59 86 46 39 46 38 38 26 24 28 31 38 42 62 67 65 74 85 71 54 58
99 128 61 65 79 106 156 179 133 121 130 102 51 84 169 108 125 109 66 39 42 42 60 60 58 52 61 66 83 59 40 34 44 61 86 102 102 111 107 121 116 115 96
89 89 81 46 27 47 95 117 157 229 271 282 229 182 228 189 108 126 48 36 37 73 64 69 77 88 68 103 95 88 68 73 112 121 143 147 139 145 159 134 141 150 130
87 103 112 79 66 51 44 188 245 207 343 441 274 288 297 200 122 47 50 62 66 80 80 69 102 107 105 98 115 108 97 88 82 98 135 170 174 173 166 201 157 150 142
79 78 67 61 78 51 102 124 68 60 125 139 150 255 150 52 83 89 69 57 56 56 35 100 99 141 153 142 150 153 182 181 139 102 99 127 143 152 204 182 183 144 154
79 81 74 52 34 38 97 96 56 83 -7 -38 70 55 -51 -84 -40 -61 -41 -17 26 36 21 -43 124 132 141 182 230 213 239 225 221 215 145 171 160 180 151 160 171 118 160
89 75 66 61 26 4 26 -7 -15 -16 -14 -32 -41 -29 -98 -118 -84 -16 -7 -57 4 43 14 67 84 141 158 160 232 282 296 212 234 263 243 149 202 147 111 146 126 119 124

GFSSE_con_3kmhel_075.txt.gz
Helicity
69 80 87 109 145 138 204 215 296 245 200 200 213 228 274 212 193 170 168 134 87 68 106 74 70 71 90 91 102 105 107 114 120 134 108 101 92 101 118 119 136 137 144
41 54 140 152 190 144 214 227 245 203 224 263 250 251 215 227 222 214 183 143 107 112 135 106 92 93 77 89 100 115 134 137 108 110 109 116 100 103 123 146 120 97 104
80 113 113 193 218 146 175 197 240 266 277 279 243 233 219 216 235 231 204 189 160 142 132 108 86 80 79 86 106 104 97 111 103 101 71 77 88 90 94 103 104 106 95
127 118 140 178 173 176 156 185 226 247 315 296 313 226 200 224 248 204 185 160 141 129 119 94 89 87 84 87 95 112 136 119 119 84 77 79 72 70 78 78 71 89 96
185 168 112 193 206 102 127 120 168 205 227 297 300 252 230 222 228 198 170 133 115 105 103 104 89 83 74 79 93 108 78 94 119 68 74 66 54 52 77 80 69 70 73
175 197 187 297 326 195 233 149 99 155 180 242 276 260 220 217 195 195 154 124 88 91 114 102 84 67 76 77 94 98 102 125 67 57 70 83 53 42 50 49 61 57 53
148 206 288 266 301 274 185 255 295 187 143 135 237 202 193 180 214 191 152 89 96 89 76 82 62 61 75 84 83 85 94 74 41 43 46 49 29 42 38 45 41 42 41
163 191 292 215 227 291 389 272 337 246 292 258 70 213 193 197 198 238 204 140 126 105 81 71 59 67 70 66 74 79 72 40 18 18 23 20 44 34 40 35 36 36 34
210 217 246 257 223 269 265 230 228 310 67 196 187 178 218 202 231 272 217 162 99 88 75 60 65 66 57 42 41 34 45 23 22 20 8 24 23 29 19 20 17 21 20
160 181 216 250 271 262 277 105 58 96 177 166 227 248 265 298 282 272 218 130 70 68 68 60 64 47 24 28 33 30 25 16 20 11 6 4 13 13 12 13 15 13 17
139 118 137 191 187 155 81 26 35 21 155 163 243 422 388 335 287 197 176 114 77 83 80 70 54 40 39 34 25 24 -6 2 16 -2 4 -6 13 14 14 10 11 16 20
78 97 92 54 -22 73 15 48 54 57 177 278 396 413 397 359 265 229 186 128 86 88 82 65 60 51 18 17 0 13 -7 7 1 -4 3 6 21 18 16 16 17 9 10
26 14 13 38 66 60 75 106 147 68 192 290 446 501 351 342 285 264 230 168 90 75 56 51 45 9 11 -4 -9 0 19 -11 -5 8 13 14 15 14 12 13 5 9 12
78 65 69 74 73 84 100 147 164 191 313 412 306 378 314 296 265 231 196 176 99 35 23 -10 -6 -7 -8 38 10 28 -6 -14 -1 -1 -2 -8 8 5 11 3 6 6 8
67 81 87 91 82 96 97 138 183 206 435 512 372 450 219 197 243 215 193 138 105 32 7 42 24 54 12 68 39 22 -6 -6 -10 -15 -28 -25 0 13 0 3 4 0 4
23 67 92 105 122 128 109 114 194 235 315 270 336 332 187 225 239 210 131 123 113 33 12 37 21 31 13 65 41 18 4 -7 -15 -10 -10 -20 -17 -20 12 9 6 5 5
50 66 100 85 135 114 94 125 163 314 371 339 272 328 141 175 202 122 74 61 89 66 80 67 53 -35 73 66 38 18 14 5 -1 -5 -10 -8 -8 -16 -10 10 20 10 10
65 78 102 112 91 119 87 121 146 285 203 171 141 65 140 180 113 73 63 43 88 40 85 85 -29 61 70 51 31 19 19 17 9 2 3 4 -5 -3 -4 0 35 26 25
57 77 116 55 128 130 124 85 81 196 193 198 179 147 175 157 90 176 71 108 132 109 57 27 4 68 43 28 25 26 28 21 14 13 8 8 6 7 19 37 32 42 36
66 83 124 49 134 141 92 99 108 158 179 267 197 161 135 209 138 84 180 217 79 67 17 -5 24 39 23 30 35 32 23 17 16 16 20 22 16 26 35 38 43 43 42
72 102 98 54 101 111 89 64 118 107 115 235 283 156 182 210 162 230 219 35 29 48 21 6 43 46 45 47 63 47 30 17 18 25 43 50 57 66 61 71 93 71 66
79 93 69 5 75 40 59 57 103 112 161 155 266 276 201 218 105 178 63 48 64 62 48 21 58 50 56 52 60 75 50 40 47 60 82 94 116 97 120 106 113 109 119
69 85 84 67 76 72 135 177 170 221 199 191 186 335 238 100 111 66 54 53 46 63 44 39 53 58 62 71 72 74 70 55 58 72 57 108 120 101 113 114 117 116 119
43 64 58 86 111 97 119 144 129 175 192 123 128 154 175 144 115 132 118 96 44 47 36 53 57 76 88 84 92 84 92 107 71 56 70 81 112 105 122 167 184 151 105
52 39 65 77 112 88 87 96 128 105 84 117 128 165 204 179 157 88 51 78 -11 6 25 62 93 92 83 118 151 113 122 130 132 114 81 92 120 87 96 125 153 137 99
54 39 53 83 75 74 75 80 112 61 30 88 179 123 99 88 47 1 -34 -53 -28 38 23 17 60 78 104 112 120 122 159 126 111 154 145 143 149 117 100 121 111 126 105

GFSSE_con_3kmhel_078.txt.gz
Helicity
32 67 66 62 69 104 129 189 180 198 181 214 194 160 153 110 91 97 93 93 86 87 66 67 65 77 90 86 93 92 108 100 97 93 102 103 118 141 155 149 130 142 149
66 67 55 78 119 122 137 151 197 180 197 206 220 176 170 124 91 98 110 108 95 71 81 86 102 116 114 109 107 99 106 111 108 111 113 132 141 146 146 154 146 121 126
34 57 72 145 136 131 132 123 167 189 196 248 235 205 176 162 132 109 143 125 101 89 119 107 119 116 114 109 110 124 124 116 77 40 66 86 92 103 120 109 100 96 94
51 90 111 177 170 144 119 114 155 166 201 239 230 238 201 187 159 149 179 145 124 113 124 110 115 102 106 130 129 134 120 82 23 -64 61 65 76 84 75 83 80 76 71
78 103 194 185 193 129 107 77 115 160 182 221 201 267 237 199 193 189 223 209 156 130 109 113 108 93 93 119 113 121 88 48 14 46 50 52 57 49 54 44 59 85 87
126 105 175 182 191 212 189 213 50 136 199 204 203 268 230 199 169 204 228 199 135 112 105 99 92 87 112 129 138 125 75 16 5 70 52 49 55 53 69 74 77 71 70
139 146 155 190 224 237 168 117 33 61 94 159 182 230 230 197 184 205 177 180 117 120 118 102 87 94 114 116 100 89 32 4 35 34 37 41 56 52 52 47 51 47 45
160 125 182 114 111 153 201 109 49 98 185 158 99 152 180 187 169 193 140 163 149 121 117 98 87 79 85 82 73 58 23 10 48 44 30 46 38 42 41 34 34 32 34
157 113 141 103 177 223 250 135 172 226 230 231 314 76 124 149 173 173 128 197 165 123 108 84 68 69 62 60 78 47 -8 -19 31 23 34 21 21 24 28 26 27 29 26
173 131 140 119 166 128 144 213 229 213 227 268 230 262 144 143 182 237 212 182 205 165 102 75 63 72 67 63 72 39 10 -25 17 24 19 36 11 18 25 24 26 16 21
138 132 120 112 181 155 186 237 226 261 152 149 213 182 181 235 171 164 163 158 188 162 107 89 84 81 82 61 40 -7 -53 13 4 12 38 11 15 24 23 15 14 20 31
67 61 90 79 52 122 127 158 156 153 94 50 152 279 202 299 145 132 192 159 176 154 112 94 78 61 15 21 -0 -25 -2 17 4 26 41 20 16 17 14 19 22 25 27
58 84 88 94 73 33 84 64 83 47 67 60 169 224 550 299 194 114 243 145 145 124 83 57 42 -2 16 -0 -22 9 14 18 8 34 39 18 13 19 18 21 20 24 21
55 56 77 85 78 73 82 90 110 99 110 195 298 403 551 405 153 186 248 108 104 93 67 33 -1 17 5 -2 -2 20 8 27 22 23 27 18 19 17 20 16 16 17 21
32 34 44 65 71 65 70 109 132 154 156 386 591 540 420 219 225 206 233 127 90 75 39 29 20 -2 19 14 20 15 20 33 19 8 13 17 11 13 11 15 10 8 3
29 28 27 38 59 59 83 143 164 231 474 609 579 511 399 288 257 142 189 140 131 69 36 26 -0 15 34 36 21 50 43 33 12 16 24 13 14 -2 -6 2 -4 -8 -5
52 58 58 62 64 77 111 160 170 204 430 831 499 481 395 230 97 205 155 148 123 58 41 44 6 18 31 42 59 53 49 33 32 27 28 25 16 3 9 7 8 8 3
59 63 70 76 77 108 95 93 157 181 305 413 292 258 311 85 137 172 160 141 177 122 73 10 2 25 63 48 53 52 48 35 27 23 16 15 13 9 11 24 34 22 22
58 82 86 108 108 79 60 82 133 266 348 419 302 212 175 106 142 97 215 195 117 40 36 35 29 53 43 39 40 46 39 32 22 17 15 7 11 8 32 79 41 38 30
77 86 118 156 45 77 60 105 161 233 372 336 201 237 337 174 150 156 62 103 46 63 127 104 64 42 21 34 37 31 27 22 21 14 10 16 17 11 13 24 65 43 56
76 99 134 72 29 81 59 59 139 240 187 145 162 131 34 -45 115 86 101 1 2 58 74 95 72 36 26 30 33 29 26 22 23 24 27 28 25 33 23 40 53 76 96
77 87 114 20 41 12 15 11 151 147 126 139 132 81 94 30 91 57 21 97 75 168 178 67 41 34 34 38 49 40 37 37 34 38 48 54 77 78 94 55 86 79 88
81 74 86 32 26 1 -10 71 147 227 226 292 252 230 127 93 101 49 71 134 187 232 43 78 59 34 36 48 39 58 61 47 71 62 40 80 48 83 103 74 90 125 140
80 64 58 59 69 47 65 92 97 159 177 261 281 268 325 190 126 104 84 80 205 30 28 32 34 25 11 39 78 46 70 80 57 50 58 71 87 85 104 114 148 110 161
86 60 31 64 83 123 111 84 73 41 120 234 295 354 301 268 154 167 266 107 92 39 23 18 28 14 27 28 72 93 80 76 71 64 48 54 90 97 101 126 68 124 174
91 77 46 55 69 107 153 144 146 91 104 94 190 209 229 276 248 189 108 91 108 15 -11 2 13 19 25 53 62 74 83 111 57 66 62 53 124 205 119 91 99 134 149

GFSSE_con_3kmhel_084.txt.gz
Helicity
105 97 138 155 147 93 82 73 88 93 107 94 91 108 119 114 110 124 123 123 110 99 86 78 85 96 109 124 137 155 159 168 197 159 143 114 111 119 126 112 103 117 135
104 116 126 157 144 100 78 88 88 109 106 105 114 120 111 104 99 90 103 68 81 78 84 83 90 87 88 119 144 152 155 163 142 148 144 146 123 118 114 89 90 83 99
134 93 94 139 134 101 83 112 108 108 104 106 118 116 108 99 79 72 63 52 51 82 73 73 79 79 91 119 124 120 111 101 103 116 126 110 88 92 89 89 86 82 68
69 43 87 107 120 115 98 140 124 113 113 138 124 117 106 108 81 66 67 68 53 76 64 69 73 92 91 96 83 54 46 47 54 96 64 80 80 77 82 78 53 50 46
93 82 114 89 104 145 96 121 128 138 145 133 138 105 124 109 85 84 94 64 63 85 63 74 91 100 95 54 23 27 10 32 34 62 92 92 66 60 48 43 50 50 52
69 120 108 87 56 88 100 114 105 126 131 140 131 132 114 111 116 117 108 77 69 77 75 99 100 90 85 37 34 24 24 13 8 29 51 100 95 86 76 63 56 71 62
92 81 78 106 113 104 102 104 205 294 192 177 125 88 137 124 133 126 102 88 77 90 103 94 96 97 66 26 81 89 71 43 79 59 76 85 64 57 51 51 59 67 66
92 94 124 116 152 208 239 240 272 264 452 49 29 94 107 155 135 122 104 122 111 141 120 87 100 98 63 63 101 127 106 108 105 94 70 57 47 52 61 54 63 68 70
89 113 101 115 180 223 245 213 187 148 264 138 -57 195 53 185 182 156 140 159 160 148 105 83 112 119 89 83 142 174 165 172 118 69 61 37 46 57 59 63 60 74 75
109 122 129 181 146 128 130 150 160 167 161 97 61 90 35 145 111 149 170 181 166 138 104 100 117 124 105 108 134 142 130 122 69 70 74 47 43 50 64 74 81 68 69
94 92 156 187 116 90 98 91 124 24 9 17 35 108 129 110 174 109 173 185 175 134 106 103 116 124 108 82 68 -15 -23 29 87 115 70 50 42 52 71 74 62 54 55
95 75 97 126 148 71 85 83 48 29 55 75 76 -14 91 151 116 68 109 152 147 147 106 107 119 100 103 61 2 15 29 53 134 81 46 41 56 55 63 55 49 51 55
107 98 68 113 117 151 125 62 50 69 112 136 73 110 144 232 210 194 170 185 162 153 124 125 114 83 97 66 29 45 77 129 80 51 38 53 50 49 41 48 54 44 43
161 115 76 68 89 117 123 65 50 82 112 137 171 214 243 259 180 202 150 170 141 133 110 110 66 70 72 48 73 42 -18 162 120 87 41 56 48 41 47 40 44 36 29
156 165 96 91 82 137 137 121 69 58 81 110 179 210 300 298 278 231 198 259 168 114 104 82 48 98 71 83 81 49 49 162 88 85 58 66 54 39 35 35 29 24 20
158 182 146 114 103 94 101 105 99 76 69 93 163 202 213 256 320 298 389 168 119 100 99 67 86 91 98 65 79 61 89 98 61 71 76 56 46 33 26 28 26 19 13
139 238 179 182 132 95 141 150 137 136 143 144 158 171 224 284 423 384 276 192 152 90 69 109 131 107 113 77 67 86 92 90 51 77 60 46 27 26 24 23 17 14 14
83 175 246 212 143 160 197 170 156 165 165 188 193 162 319 395 393 316 369 277 268 93 169 180 138 105 85 90 79 78 80 83 102 72 46 53 35 20 17 31 19 13 16
176 217 283 191 164 212 237 200 197 213 241 255 340 347 452 572 599 640 381 197 100 220 232 213 117 113 100 100 83 51 76 62 76 38 79 58 42 59 47 33 37 35 37
190 140 275 218 203 256 247 195 158 187 237 334 469 625 790 716 553 368 446 181 228 268 249 205 195 160 131 68 43 55 52 74 47 36 81 59 33 102 86 81 62 57 61
239 253 275 267 218 204 138 132 119 151 198 226 340 382 457 564 500 358 304 244 237 217 171 180 180 132 130 96 52 142 77 77 45 60 68 68 90 108 101 161 133 102 86
249 205 264 215 179 145 111 146 135 155 143 95 103 147 353 464 379 274 351 294 210 139 162 164 174 130 85 46 172 144 117 82 65 57 57 70 60 91 75 127 146 135 128
222 182 201 181 158 160 163 184 186 160 194 246 244 283 270 197 370 319 239 211 181 106 109 95 105 107 81 153 138 100 115 77 85 36 45 77 75 76 85 85 119 156 133
179 174 197 178 157 184 214 200 279 289 268 208 271 181 139 164 163 110 48 -13 -6 -9 19 19 -13 16 106 122 93 96 135 100 129 81 38 19 59 86 87 122 155 126 120
174 197 192 157 153 176 228 235 261 270 242 259 190 129 149 44 5 48 77 -2 -53 -36 -7 20 26 -29 60 112 45 72 54 75 142 96 85 70 66 62 92 143 154 159 134
217 215 221 169 142 163 242 268 249 304 328 332 203 182 140 71 -9 68 86 45 -7 23 14 55 22 24 42 125 64 41 94 118 117 130 108 119 114 117 121 119 155 145 174

GFSSE_con_3kmhel_087.txt.gz
Helicity
37 21 77 99 150 167 134 112 96 102 99 101 102 91 107 112 118 129 123 126 141 154 140 148 123 107 116 136 155 165 150 144 147 140 127 116 116 131 147 156 159 135 135
69 43 71 106 124 138 127 117 109 99 102 101 101 105 112 114 117 120 123 115 124 124 100 109 121 105 111 142 167 161 166 176 181 182 145 114 113 107 106 116 121 113 125
55 55 80 94 121 115 107 116 114 110 116 116 110 104 111 116 115 109 106 106 92 87 89 82 91 109 114 137 134 132 145 168 188 173 152 115 95 97 97 96 97 88 95
62 58 80 82 105 97 93 90 100 106 127 121 124 134 102 134 99 86 72 73 68 57 65 72 82 101 114 118 105 106 124 134 142 161 157 114 89 84 82 65 75 70 72
70 81 71 56 78 100 95 97 98 99 133 117 112 128 121 101 97 73 82 69 50 39 48 55 63 72 97 101 95 76 87 116 111 123 130 127 101 81 75 70 54 52 58
171 131 98 69 74 83 106 125 111 111 115 133 109 61 109 103 110 89 91 71 57 51 52 54 53 64 83 76 66 75 100 96 120 144 139 132 101 89 72 74 57 59 52
161 111 96 90 84 91 97 109 142 162 270 320 291 224 127 101 95 106 95 92 65 70 74 42 39 65 102 92 84 109 67 74 95 135 130 124 91 72 54 45 56 52 53
188 150 110 112 124 133 158 181 210 294 252 253 194 149 92 114 112 128 107 108 93 110 98 53 40 105 118 124 106 105 155 140 96 100 117 103 73 59 50 54 61 59 54
279 176 160 151 168 191 227 239 229 214 133 91 175 111 99 108 61 135 138 128 113 115 80 54 65 114 151 131 114 162 239 139 85 79 124 72 67 59 60 55 54 54 48
236 256 167 172 162 180 170 164 125 119 142 133 168 131 -20 119 19 120 149 124 100 98 71 73 84 121 136 136 155 258 193 146 86 93 92 60 71 55 59 55 52 56 54
138 131 191 171 132 123 120 107 92 118 81 81 125 102 25 36 68 100 134 134 138 92 97 91 85 134 151 175 231 237 192 100 78 64 61 53 60 55 47 46 52 54 56
119 94 146 153 124 97 92 90 58 52 25 45 13 44 96 155 107 139 100 134 121 111 123 98 70 125 162 177 171 252 145 105 82 60 52 48 56 58 57 50 54 55 55
182 130 131 147 102 83 66 59 45 32 35 87 109 112 116 108 104 146 175 185 152 144 147 123 96 108 119 146 113 203 138 127 92 58 44 42 58 65 56 47 44 50 54
248 163 144 162 98 73 93 72 75 73 55 106 105 56 103 131 221 160 225 185 135 135 158 130 114 85 97 114 89 188 135 103 88 55 56 52 59 56 48 41 40 43 39
231 158 122 140 98 72 83 86 84 57 60 91 119 117 211 230 226 211 252 222 193 136 118 113 110 73 91 134 104 163 149 99 66 75 71 72 64 40 45 44 36 38 35
233 184 151 129 128 118 78 83 92 98 71 90 145 174 163 216 224 272 228 228 177 157 105 85 99 71 122 138 150 130 133 119 77 81 91 67 54 45 40 42 38 35 29
248 218 201 137 113 126 132 151 142 146 117 110 126 185 227 261 244 235 282 286 215 248 85 79 105 104 143 121 168 112 134 53 70 97 93 76 55 49 41 38 32 24 19
308 286 257 204 165 188 198 199 174 138 127 122 116 158 217 287 269 305 317 279 240 237 68 69 71 132 135 104 185 143 102 71 40 76 88 65 59 43 29 29 25 22 16
305 354 290 219 185 271 300 223 162 124 134 130 92 131 169 225 296 361 388 328 161 216 145 109 138 156 166 119 168 167 86 76 48 47 63 62 47 30 31 26 31 22 21
370 366 302 234 234 304 311 246 160 123 124 144 120 125 169 254 268 307 381 331 217 236 209 168 204 180 130 129 126 127 116 63 53 45 44 34 35 51 52 57 48 31 36
465 424 348 299 297 335 284 202 141 84 93 146 196 234 214 329 437 617 486 434 368 318 295 220 202 174 121 129 163 128 88 37 64 82 85 69 48 54 60 73 67 66 54
490 436 352 310 297 281 228 159 138 110 103 112 190 284 354 611 569 593 639 384 360 259 234 232 268 276 212 156 139 161 176 138 157 70 94 84 65 91 93 89 104 104 113
490 443 361 304 271 223 207 179 182 163 157 102 130 165 260 521 589 385 310 129 209 241 251 175 223 239 181 192 150 195 226 214 138 111 82 91 115 139 145 133 152 159 155
427 385 338 280 233 222 214 204 219 187 144 23 55 109 136 118 172 182 251 198 292 323 289 134 149 146 163 149 182 158 201 129 159 108 109 73 69 98 119 126 186 161 166
403 359 328 276 217 204 207 213 211 182 106 112 74 108 121 110 165 156 123 145 239 259 297 129 109 125 203 117 125 159 157 172 161 152 115 62 52 55 -12 55 98 163 209
351 374 320 285 202 205 201 224 199 179 175 166 151 112 104 108 110 114 62 23 57 31 4 11 -14 -12 77 50 69 161 159 196 129 132 56 86 104 103 69 63 130 121 153

GFSSE_con_3kmhel_090.txt.gz
Helicity
-2 1 32 62 80 118 152 183 174 153 151 133 112 125 156 184 194 191 181 174 170 154 156 182 192 156 130 121 137 137 129 120 135 134 134 127 134 156 175 176 179 153 147
61 17 36 62 83 112 146 159 165 155 151 135 123 111 124 132 144 157 169 158 144 137 150 163 144 134 139 146 163 163 149 136 142 154 140 124 140 147 144 152 137 118 139
73 43 53 66 88 126 135 131 130 140 142 122 121 116 117 126 132 131 137 141 137 130 131 130 121 134 135 168 182 181 189 195 176 158 146 127 110 112 97 103 105 124 114
50 47 62 87 93 118 122 112 120 127 130 130 123 121 136 148 140 135 124 135 128 121 109 96 111 116 140 179 172 181 191 199 196 171 147 122 94 91 71 75 88 103 109
32 48 50 87 94 88 98 96 114 124 134 145 148 122 119 119 121 135 131 121 117 102 79 81 95 105 147 162 154 158 176 190 189 164 138 112 82 68 73 79 87 83 74
83 91 87 101 92 73 80 99 111 145 150 165 168 133 120 111 120 113 136 110 90 77 62 69 70 89 130 154 149 153 174 179 179 188 167 118 95 80 56 64 66 62 52
153 127 143 120 99 83 90 100 131 166 223 313 397 374 384 282 91 81 110 99 65 60 74 80 59 108 135 172 158 161 169 166 171 173 171 125 93 71 61 51 53 62 62
172 180 189 160 129 93 85 104 130 245 261 282 326 313 311 313 171 23 58 102 78 83 97 75 86 101 150 161 143 121 150 138 173 183 167 120 86 63 54 50 58 59 68
183 189 207 183 162 126 98 123 174 230 259 245 253 224 190 325 196 124 26 79 78 94 91 102 87 111 153 144 136 142 122 134 137 149 146 99 79 60 52 56 58 59 56
215 193 173 192 194 186 201 202 174 183 165 131 106 119 151 171 287 191 31 56 110 123 98 118 101 106 140 167 148 151 141 136 133 156 136 76 73 64 53 52 58 57 49
197 188 180 183 202 173 169 166 124 114 121 123 159 149 201 183 354 64 -38 64 132 99 111 128 104 105 184 165 194 191 143 76 100 118 95 60 59 55 61 59 61 55 41
158 118 156 166 201 131 120 103 72 82 123 116 116 116 180 167 159 111 -1 124 166 149 126 108 102 119 234 246 198 160 116 73 74 95 71 49 48 59 58 63 52 47 42
131 109 143 181 192 115 91 58 51 88 132 94 75 86 141 78 76 100 122 164 195 164 160 137 104 162 251 229 187 167 124 81 68 68 46 41 48 54 52 49 49 50 47
166 119 133 143 169 110 83 60 56 80 98 105 82 107 21 112 155 121 122 119 122 132 178 137 150 141 229 193 161 166 136 89 83 57 32 30 42 45 51 52 49 45 50
214 128 115 133 141 119 101 79 79 82 86 99 86 86 -12 35 91 125 82 111 184 157 132 146 134 143 174 197 150 138 141 114 108 81 66 30 34 36 47 48 46 44 46
234 156 115 126 128 107 96 89 91 95 92 106 90 98 91 164 145 79 87 92 104 134 161 136 120 128 165 214 143 132 129 119 116 98 67 40 30 37 37 44 48 44 44
226 189 129 131 139 118 114 104 92 80 92 97 93 107 153 168 166 148 167 133 117 168 162 147 132 151 216 211 133 120 129 124 91 88 109 77 56 44 48 46 54 50 42
293 235 177 176 138 114 129 162 164 145 130 92 100 90 133 194 215 175 166 167 201 158 175 159 171 144 230 206 173 138 131 102 97 103 112 100 75 55 51 48 40 40 38
353 309 247 229 214 166 165 197 193 176 152 105 103 104 163 171 242 322 250 155 229 290 224 178 198 213 217 241 161 143 119 85 80 89 101 95 72 58 47 26 26 35 31
386 295 273 269 297 238 246 259 182 146 113 111 81 64 127 172 179 183 200 250 294 258 257 165 204 202 246 269 198 173 137 78 74 47 69 71 67 61 59 41 31 28 29
400 356 325 326 316 300 276 258 150 110 78 92 98 74 95 209 340 375 382 280 257 334 185 200 171 187 190 258 307 206 149 69 51 26 55 53 62 53 56 55 48 54 38
442 381 341 337 323 282 245 203 123 104 51 57 69 61 18 90 163 241 279 251 371 202 309 259 140 296 242 246 319 252 192 148 47 41 61 73 86 67 54 50 62 67 69
441 406 367 328 314 281 269 211 153 100 81 40 56 100 46 100 163 346 371 499 380 344 280 203 283 208 202 275 218 273 328 285 147 66 98 87 100 96 77 75 84 85 98
426 386 362 316 318 284 272 217 187 106 76 27 51 61 153 192 181 288 423 633 602 373 267 243 308 210 223 184 218 179 243 127 154 158 204 76 93 101 113 107 113 125 125
447 397 348 296 293 292 254 214 179 124 55 68 91 102 112 205 328 615 809 837 225 158 184 227 235 241 190 240 232 314 190 178 198 212 176 184 126 102 124 141 166 154 141
422 390 324 284 272 275 259 198 195 143 139 130 81 74 77 97 100 169 126 86 129 124 83 192 174 187 214 185 199 220 208 209 194 173 136 139 151 127 131 171 174 175 171

GFSSE_con_3kmhel_093.txt.gz
Helicity
-2 8 14 29 67 97 126 160 193 212 180 149 154 183 196 219 206 184 170 167 173 166 148 161 151 122 111 109 98 103 114 114 113 108 117 109 106 129 138 146 158 131 147
35 -7 10 32 77 122 134 145 169 178 160 148 151 187 196 199 187 164 176 191 196 189 171 187 195 151 107 121 137 130 131 140 155 129 131 123 133 151 147 144 145 141 136
44 25 16 27 81 134 153 152 149 146 152 153 149 161 172 176 176 170 171 183 188 171 173 183 186 144 129 157 172 169 169 190 204 200 180 176 138 147 144 127 130 143 140
52 38 23 48 96 129 147 160 149 134 141 158 156 164 175 187 182 175 169 151 141 139 155 166 153 162 166 206 210 212 200 205 191 163 148 148 122 101 85 92 99 106 104
24 27 27 76 96 119 132 141 134 125 137 150 190 165 154 148 147 138 145 147 140 129 134 139 160 145 176 196 210 214 213 200 177 150 127 106 102 99 79 76 77 85 101
57 47 48 90 91 100 104 114 125 133 171 161 173 173 151 145 138 140 124 124 152 130 111 135 164 164 178 203 214 209 212 195 181 156 134 123 119 93 71 66 70 81 87
83 49 88 109 106 103 102 105 120 160 174 209 210 137 205 176 160 139 102 66 86 93 100 145 160 182 187 189 181 190 194 192 185 177 168 126 89 78 58 62 64 67 75
124 103 130 131 122 119 119 115 120 168 247 293 364 401 412 281 293 227 118 172 75 93 97 117 133 170 151 170 178 183 175 172 191 189 172 109 96 69 61 62 60 68 72
158 193 174 166 138 129 128 132 155 213 225 294 308 332 326 338 255 63 88 162 38 83 109 123 146 143 166 162 158 151 149 167 184 184 170 106 88 77 66 61 54 61 56
162 181 199 170 176 179 157 128 183 220 252 281 303 333 343 304 196 216 180 203 -3 94 143 128 152 162 162 128 140 129 144 151 151 184 159 104 78 72 66 50 45 48 48
176 141 153 149 175 188 200 168 181 159 158 164 184 212 238 214 216 248 251 172 26 74 118 165 155 172 132 121 125 118 130 129 142 154 134 106 78 74 58 54 49 42 52
192 161 138 132 167 187 179 170 184 168 134 147 134 139 209 213 195 240 216 148 74 45 91 161 211 175 162 146 154 158 122 108 130 153 116 92 72 70 58 49 40 44 49
175 178 133 135 175 197 157 134 156 129 116 113 149 144 133 226 191 202 117 161 60 35 122 215 258 230 188 176 174 146 136 86 120 117 76 54 50 53 57 45 41 40 50
204 119 126 137 171 166 148 115 122 124 106 101 92 86 120 184 246 194 195 187 97 191 229 255 265 218 219 204 151 157 99 59 105 102 66 48 48 57 44 40 40 45 52
210 90 102 137 145 159 156 126 121 105 107 83 85 82 71 145 19 99 205 169 189 196 194 247 261 228 198 200 152 132 110 85 79 95 82 43 51 45 32 37 42 52 55
194 107 110 123 109 151 153 148 138 116 100 110 97 94 74 79 57 74 137 121 156 143 159 221 256 273 228 179 179 135 120 98 74 76 92 33 38 44 37 42 45 51 61
215 164 138 126 97 152 158 144 163 125 131 118 101 103 95 64 102 16 49 33 62 118 148 228 308 292 250 210 148 132 146 114 91 89 126 80 61 52 63 48 45 46 48
310 229 159 148 133 168 157 153 151 165 142 127 111 109 116 113 126 127 86 72 76 155 129 167 307 280 260 232 192 155 150 123 99 97 125 112 92 68 64 64 47 37 36
321 313 251 197 166 188 183 156 172 174 194 157 143 105 88 130 133 129 132 90 113 118 131 162 291 296 303 267 222 194 162 125 97 94 118 120 93 91 83 58 54 43 33
329 310 298 230 203 218 233 217 191 179 187 189 114 126 123 122 120 174 213 146 159 153 144 186 278 306 324 278 241 180 149 139 97 79 87 107 88 86 81 81 59 35 38
385 316 329 309 244 268 256 264 193 178 164 134 100 50 80 136 169 180 210 294 192 159 176 225 327 384 365 321 308 274 218 145 103 79 77 86 85 82 91 72 77 64 49
435 316 328 331 321 266 240 209 182 180 129 87 58 38 44 53 178 139 301 249 235 264 216 288 254 445 384 281 301 308 244 166 95 70 64 78 50 47 81 76 83 84 81
409 373 342 366 338 270 242 260 224 207 154 92 54 -4 22 76 93 145 280 281 300 399 471 204 287 413 397 287 244 367 341 326 205 112 19 44 50 77 99 72 75 81 82
408 381 351 343 309 250 282 232 219 150 146 109 76 45 31 15 65 95 190 275 272 431 290 303 312 298 351 320 314 295 261 187 215 185 85 46 65 111 71 90 98 84 89
484 450 363 330 288 232 263 218 198 137 105 123 121 59 88 60 85 60 139 274 318 216 477 480 292 289 305 267 295 341 324 205 164 159 241 106 120 90 81 91 119 131 121
492 442 355 318 270 231 251 198 184 143 137 122 152 133 123 136 206 120 167 263 548 506 714 731 359 301 286 302 304 192 222 282 215 200 167 119 136 105 75 115 129 159 172

GFSSE_con_3kmhel_096.txt.gz
Helicity
-13 25 38 61 100 135 144 137 152 187 219 220 206 193 199 200 192 190 169 144 121 103 118 139 139 113 107 108 117 115 111 97 114 109 110 107 108 115 129 125 114 103 120
33 26 39 61 107 147 156 156 143 142 166 190 202 194 204 200 198 188 172 151 145 124 126 137 154 146 127 126 121 134 110 125 112 106 121 119 107 109 122 138 139 142 151
33 29 50 86 114 131 154 168 160 150 139 142 166 182 193 187 190 182 179 188 178 160 147 166 152 137 119 134 152 149 149 169 183 161 152 144 125 128 139 146 135 133 122
44 19 45 85 127 128 152 154 159 149 139 126 147 173 189 187 177 169 181 192 186 188 162 157 141 141 141 173 183 187 187 182 187 179 171 147 145 133 129 139 144 141 141
12 29 32 52 96 128 145 160 160 133 125 138 178 170 182 204 168 157 172 175 180 171 161 151 149 166 173 208 216 203 189 191 201 194 187 185 129 106 86 98 138 122 117
46 59 42 64 80 93 108 133 144 137 130 149 188 196 158 138 168 149 155 133 123 130 125 137 171 194 207 237 215 197 193 203 191 171 166 140 120 105 100 88 97 114 103
70 64 70 90 93 98 94 113 131 150 163 192 125 133 196 123 53 85 96 84 76 83 119 171 190 204 216 211 207 210 197 187 187 174 138 122 111 89 86 94 89 96 80
109 103 103 119 118 123 109 119 121 133 149 168 176 202 277 330 296 31 309 124 48 60 118 156 202 198 207 206 208 190 200 173 171 156 121 110 93 78 74 83 80 76 71
97 132 135 139 137 137 130 129 139 154 164 195 226 239 284 324 331 262 287 195 118 26 121 176 199 206 202 205 184 188 178 165 165 136 124 77 92 77 76 74 73 56 56
112 145 143 147 139 152 152 130 160 185 220 254 234 272 315 293 295 299 252 213 114 65 96 163 210 195 183 176 182 164 150 150 166 148 135 92 78 82 73 66 63 50 43
131 141 141 144 139 155 166 183 193 221 244 220 248 294 297 289 256 214 198 155 68 152 100 146 217 173 162 163 139 133 146 146 164 164 133 76 68 74 68 63 54 57 50
142 129 139 132 138 164 154 210 235 192 178 193 218 254 271 243 210 152 93 127 124 164 173 123 198 185 186 180 142 143 146 139 144 152 114 77 64 77 68 57 60 48 49
131 126 134 135 149 169 148 190 187 176 174 198 212 197 183 189 168 141 108 149 254 183 241 175 226 230 190 174 160 144 128 137 133 134 80 84 72 68 72 55 57 52 50
170 129 140 141 157 145 138 170 188 139 142 157 154 173 176 159 148 168 168 181 218 232 165 265 251 236 195 175 151 137 126 125 117 127 62 81 65 67 66 62 56 53 53
182 164 162 165 148 145 131 152 209 145 132 111 122 129 125 133 165 274 215 202 276 221 174 263 264 214 184 169 149 130 123 113 72 113 73 63 44 56 54 51 55 56 54
187 198 203 171 139 141 114 154 175 157 125 129 140 104 101 78 88 191 166 215 255 230 344 232 220 237 203 181 174 126 119 75 68 85 89 72 59 45 49 51 52 56 53
200 242 261 187 157 131 132 146 158 152 115 139 135 114 105 115 61 58 227 332 324 174 170 193 280 280 250 207 175 134 128 105 80 86 95 81 55 65 54 56 57 48 56
255 280 256 223 167 123 144 149 177 169 148 136 157 148 120 119 53 19 156 108 186 238 219 231 269 255 233 206 181 149 140 118 112 93 97 100 95 93 58 53 50 46 48
265 303 265 259 189 138 150 164 177 161 175 171 181 170 141 127 102 57 62 76 101 162 189 237 294 280 267 221 168 175 148 124 107 99 96 109 98 92 89 57 47 46 46
278 294 306 269 239 201 216 205 200 175 159 163 186 171 150 131 123 115 130 131 124 136 168 222 258 280 291 260 199 182 173 148 133 111 99 112 94 101 85 86 69 52 48
268 318 332 307 283 285 280 252 217 203 204 165 142 164 154 86 139 140 148 179 158 100 165 173 261 313 314 307 348 241 216 170 141 122 103 116 93 85 90 78 74 74 57
321 317 329 291 291 302 291 253 215 201 180 153 115 118 118 77 63 125 226 225 208 160 233 205 268 351 335 290 311 347 260 189 134 108 105 92 72 64 45 70 64 57 81
308 333 365 296 297 297 293 290 235 204 153 167 135 101 86 66 -2 97 196 268 301 239 291 240 259 275 395 265 254 318 360 273 196 116 74 81 68 63 81 117 97 101 96
227 306 358 298 298 284 327 276 247 195 187 162 154 96 63 24 6 56 224 276 236 224 273 272 320 322 356 402 266 324 288 226 287 181 105 50 104 117 62 57 75 77 92
209 317 364 322 285 302 280 255 238 183 153 127 136 123 70 33 48 80 121 187 219 266 249 275 318 410 435 379 372 397 325 273 252 234 240 177 100 45 27 60 91 94 103
249 256 354 343 273 275 242 246 222 214 167 161 146 135 78 64 102 108 178 181 226 254 283 290 365 351 375 335 346 300 370 326 300 338 179 93 96 106 105 90 90 142 130

GFSSE_con_3kmhel_099.txt.gz
Helicity
73 60 59 57 59 84 116 125 125 117 164 182 177 185 203 191 192 177 164 114 103 109 107 109 114 102 95 95 86 86 93 95 107 102 104 117 107 113 115 105 84 91 109
53 42 53 60 80 106 123 134 128 133 138 140 150 167 198 205 215 208 178 133 119 118 113 104 111 110 111 119 119 124 137 153 124 109 113 116 113 110 111 109 104 112 131
44 49 68 92 114 112 110 118 124 137 144 145 149 171 185 192 219 206 192 157 119 124 121 129 128 125 124 135 151 145 130 135 137 119 96 75 105 114 116 110 119 127 147
71 49 61 98 106 110 127 133 120 117 128 134 143 156 185 195 201 191 190 166 140 127 137 148 140 131 127 149 165 148 140 142 143 119 92 92 108 131 146 143 124 132 147
52 46 57 90 104 105 114 125 125 116 102 121 131 152 175 187 170 148 154 126 142 130 123 129 151 164 159 176 173 157 162 181 183 120 100 98 97 122 151 143 133 142 130
47 62 71 93 112 117 113 116 124 119 101 101 140 153 178 192 195 132 111 103 112 102 97 119 160 192 196 186 179 193 202 189 124 107 108 117 95 109 133 144 155 143 122
62 58 75 112 133 134 129 125 135 140 142 129 139 172 154 144 145 167 176 31 69 109 127 121 176 213 185 181 193 203 202 156 94 85 84 85 97 110 107 121 114 122 125
88 54 73 114 134 143 142 130 135 138 153 123 88 104 119 266 263 205 183 135 100 108 121 117 149 182 198 199 210 209 181 140 84 76 74 74 99 82 91 105 116 115 98
89 80 87 116 130 137 133 143 137 127 137 124 144 184 217 224 247 270 211 209 233 162 143 151 127 177 191 205 209 202 173 119 79 64 58 62 76 68 80 97 102 96 80
106 91 79 105 139 122 119 147 158 135 128 129 146 186 213 205 201 190 216 230 229 188 283 201 82 198 201 210 188 169 166 116 65 55 50 55 63 59 82 73 87 73 60
112 100 105 99 112 124 121 150 177 193 178 171 145 194 195 172 177 169 192 201 181 165 178 252 150 189 217 203 177 161 113 79 62 53 41 62 59 60 57 80 79 62 64
125 118 111 118 105 112 120 152 205 277 272 227 176 190 207 210 195 186 179 168 110 131 219 287 134 200 181 146 132 139 73 73 50 46 48 62 54 58 49 70 79 70 58
125 140 133 139 119 118 134 157 184 240 258 172 165 214 240 245 243 224 193 119 87 60 124 213 181 152 138 130 110 84 69 56 54 47 58 66 64 46 53 66 73 75 66
140 133 151 145 130 118 141 131 142 181 189 172 168 212 194 180 175 166 140 100 171 110 266 244 175 159 130 122 98 81 72 54 52 51 50 58 64 40 59 69 69 70 63
91 161 166 170 135 133 139 113 102 132 184 179 194 174 155 163 149 126 160 198 238 245 303 308 215 229 162 130 90 80 69 63 54 46 51 68 63 37 60 59 67 59 50
81 147 180 191 158 147 152 115 100 111 145 189 186 137 98 104 107 98 135 221 206 240 267 317 339 198 137 110 87 73 70 61 50 39 47 56 65 51 53 51 52 51 52
96 125 196 220 182 153 157 114 104 110 136 152 160 121 102 90 74 72 83 171 231 274 298 324 257 260 108 111 82 85 75 56 42 42 42 78 33 58 50 61 56 46 47
97 129 189 223 209 168 159 138 114 116 131 116 131 126 109 71 65 84 83 163 310 312 348 370 305 270 143 111 108 90 79 56 37 49 55 47 46 43 55 67 63 58 44
105 145 176 217 222 183 154 151 118 143 128 106 140 149 133 106 81 62 80 206 298 247 259 340 328 237 173 104 113 107 86 79 49 62 43 43 53 46 38 52 52 66 53
99 139 171 209 219 198 197 170 144 167 161 127 133 151 137 123 112 91 109 71 120 251 242 186 212 198 182 113 115 123 111 82 76 65 52 51 54 49 41 42 48 50 55
110 167 171 242 255 254 263 236 191 199 177 154 143 116 139 161 145 122 135 95 50 71 176 224 237 182 151 152 180 165 144 109 96 89 73 56 53 50 47 38 38 45 48
93 152 177 214 275 250 264 217 188 213 165 165 147 133 104 83 132 163 158 150 105 107 117 208 235 229 243 200 153 188 208 176 132 100 78 62 52 64 57 48 47 46 47
87 152 176 248 286 285 272 274 246 263 193 163 131 122 116 107 41 73 163 172 172 160 131 145 155 210 260 238 239 246 294 248 183 129 86 67 70 71 61 51 8 20 34
113 88 114 212 262 308 301 295 228 212 192 144 134 119 120 106 25 2 110 180 221 177 215 162 183 215 307 247 234 222 182 205 264 193 142 81 59 70 49 47 43 46 60
95 101 122 186 202 288 309 266 204 174 154 120 127 119 100 87 72 -9 -23 185 178 200 228 266 222 147 225 275 380 334 332 240 199 221 198 138 79 40 34 66 68 58 38
68 98 108 183 230 232 264 263 197 147 153 145 131 128 118 97 70 18 67 92 209 219 237 233 207 262 276 296 371 404 496 369 347 255 248 190 244 125 58 49 64 70 64

GFSSE_con_3kmhel_102.txt.gz
Helicity
100 90 44 43 43 53 79 82 81 117 149 161 141 140 161 146 141 132 118 81 76 89 85 83 94 86 92 93 92 83 88 103 104 104 104 115 105 99 89 78 77 88 108
87 52 37 31 42 80 106 95 81 108 142 154 142 138 153 153 145 134 148 102 99 120 93 78 85 83 89 92 102 118 130 137 130 120 116 117 103 107 112 112 102 99 116
68 33 34 47 79 118 102 92 85 91 111 129 130 136 159 154 160 153 150 121 122 113 87 80 89 97 104 115 136 141 140 133 120 81 56 62 89 106 123 138 122 121 132
42 43 53 84 95 97 99 87 91 97 101 110 118 138 158 156 166 178 141 120 106 107 97 80 76 109 117 143 150 142 125 111 68 36 65 68 79 101 129 137 143 151 159
60 55 85 78 85 90 98 105 99 99 107 108 123 150 172 170 143 157 138 102 82 86 67 73 94 106 140 150 154 141 128 87 37 30 69 80 71 110 130 137 133 123 127
61 62 114 90 90 91 96 105 108 112 109 106 116 149 174 164 122 104 81 81 40 51 56 86 112 149 157 153 159 145 118 68 -12 45 54 74 87 116 126 158 190 170 133
68 61 70 96 108 113 106 98 103 124 123 103 109 145 187 139 189 192 77 101 193 74 48 71 104 134 159 160 156 145 107 23 23 62 78 100 101 94 120 128 127 140 124
76 72 82 114 113 126 133 122 109 112 124 106 88 96 97 139 166 199 237 169 247 86 63 98 106 122 153 157 159 155 94 38 39 64 46 103 91 81 92 118 138 128 119
90 89 96 106 106 103 122 139 131 121 112 93 70 58 120 179 158 171 191 166 159 147 120 138 255 188 152 147 175 149 101 48 63 75 55 114 80 83 100 109 110 115 100
99 100 106 115 120 108 103 117 137 143 115 92 90 128 186 211 188 188 162 167 175 151 169 160 221 252 230 134 162 140 101 74 44 44 73 99 70 75 89 94 101 101 76
96 108 116 117 119 106 98 117 125 137 138 127 121 138 156 112 133 111 126 152 172 174 155 178 171 224 240 139 157 129 70 46 61 63 111 85 67 69 85 83 86 66 63
110 118 115 116 114 111 104 119 110 116 127 166 135 110 93 93 101 102 116 156 177 138 118 141 176 238 75 69 97 89 42 80 52 59 105 66 65 61 72 73 61 51 67
62 83 98 123 115 113 111 120 144 147 148 152 155 81 90 106 118 118 121 139 166 121 127 164 301 198 66 56 72 51 68 66 64 81 64 52 61 60 62 59 50 45 68
65 92 71 113 129 112 120 107 124 148 148 148 159 147 145 133 158 175 166 168 182 147 122 202 255 39 19 42 58 55 74 49 58 75 54 47 62 55 61 42 37 44 63
55 68 97 125 126 121 123 105 126 125 97 110 152 155 130 115 132 159 132 152 130 90 183 272 172 116 63 57 52 72 63 66 55 79 50 49 59 62 45 44 28 44 57
50 61 77 123 119 123 115 100 106 110 87 115 140 131 139 97 131 134 128 94 85 84 229 297 245 159 95 72 77 78 64 61 41 61 66 57 65 62 46 41 23 45 57
59 57 81 111 120 122 122 108 100 105 107 114 158 130 122 114 78 113 95 85 52 176 302 306 346 197 175 98 83 87 73 71 57 47 50 61 59 57 53 32 28 47 50
80 90 88 116 127 125 130 117 107 118 104 103 137 137 133 100 56 64 64 61 89 147 285 274 337 176 178 148 92 90 91 87 74 58 44 69 44 55 53 30 49 52 51
89 84 84 99 131 151 158 125 128 154 138 97 118 135 130 98 66 55 81 73 101 266 290 295 321 310 259 146 99 103 113 93 74 68 63 51 62 54 72 35 40 54 61
65 78 89 90 116 159 189 137 145 161 139 105 134 129 125 96 72 52 93 123 198 320 300 312 306 296 258 129 112 112 103 103 86 65 48 47 53 51 52 47 61 51 58
55 46 82 101 132 206 231 209 201 193 169 114 138 126 117 98 81 100 122 120 161 233 236 268 326 294 283 204 185 206 185 146 104 100 87 41 61 66 47 67 60 54 67
82 38 42 82 132 194 213 181 163 176 168 124 150 146 112 103 90 92 131 111 121 132 190 220 289 438 307 224 219 186 244 208 137 113 80 60 62 60 75 70 61 53 60
97 102 79 64 125 160 172 180 183 186 184 175 147 175 110 94 120 117 92 120 154 78 53 33 111 150 179 171 151 233 291 227 151 107 98 99 86 76 87 90 84 66 60
75 72 62 62 98 134 166 196 207 199 151 102 100 157 139 104 83 107 120 94 151 150 124 69 87 174 201 164 125 51 81 104 178 167 124 111 116 81 85 86 79 62 49
65 61 87 65 68 110 160 154 164 141 119 102 109 128 117 99 85 66 66 165 155 154 140 122 74 115 169 170 136 106 122 150 89 128 167 181 129 110 88 97 65 59 51
85 69 87 68 57 109 130 135 138 146 148 109 94 99 109 120 77 67 56 66 136 111 140 158 169 163 137 178 144 118 137 234 157 189 229 140 116 94 79 61 33 56 81

GFSSE_con_3kmhel_105.txt.gz
Helicity
66 138 71 69 70 65 57 57 63 79 89 97 100 95 94 89 78 77 75 77 67 61 66 67 63 70 71 83 89 107 128 138 138 143 133 121 108 89 70 58 76 94 94
121 106 65 68 71 61 59 68 70 90 110 116 103 97 107 103 88 87 85 67 49 64 71 67 63 61 66 81 101 111 116 129 129 120 110 113 108 101 85 107 113 104 127
112 112 60 57 65 62 72 82 73 92 111 117 110 98 111 107 99 86 91 69 69 89 83 67 63 59 78 78 94 108 116 108 87 60 44 75 103 117 120 138 110 126 125
100 94 64 76 82 77 67 59 63 78 93 107 110 103 101 117 119 110 84 75 78 77 72 56 58 69 82 88 100 106 97 76 49 34 60 71 88 107 105 107 115 139 149
86 78 101 81 68 72 64 63 66 80 92 99 104 105 123 127 117 79 87 76 70 65 39 47 45 62 106 113 117 97 66 37 22 20 52 68 72 88 103 115 109 100 140
75 74 143 93 67 69 68 71 77 91 100 101 98 104 116 115 78 107 104 83 78 62 48 48 42 72 117 117 113 80 36 1 -14 47 67 69 74 87 76 112 183 157 129
74 84 58 99 84 82 79 82 88 98 97 92 101 114 119 91 95 105 89 125 92 68 121 111 97 122 132 114 96 70 5 -39 0 90 69 84 90 90 118 148 144 135 124
77 71 68 95 90 90 88 81 87 97 100 88 95 110 84 104 88 108 60 143 119 84 132 121 98 145 143 127 82 47 -4 -31 -35 -9 82 78 91 97 109 116 108 113 89
80 77 83 83 90 96 98 91 89 95 87 87 66 71 74 130 145 164 118 119 111 77 129 199 115 158 186 163 102 65 23 2 101 110 148 113 78 73 82 89 115 110 106
89 77 87 84 97 101 103 100 102 95 83 75 65 58 99 152 151 135 114 120 133 81 104 120 186 214 166 111 110 86 49 46 96 111 129 121 86 81 90 96 102 95 83
94 81 88 98 101 102 93 99 109 107 88 83 89 89 112 91 90 106 99 161 96 89 137 146 202 248 228 130 96 66 49 43 78 137 135 82 93 83 95 97 86 81 69
82 83 83 87 109 117 101 109 84 97 89 95 111 134 92 77 75 83 96 125 76 121 124 141 183 251 250 200 174 52 50 107 92 58 113 78 101 82 85 91 74 73 54
53 63 75 89 113 111 97 133 76 104 84 91 87 101 89 86 85 82 107 112 106 110 118 160 225 246 209 191 -23 38 52 92 102 117 71 74 86 68 67 77 65 54 58
59 61 63 93 107 118 90 130 94 96 111 104 97 73 83 93 84 78 113 98 111 132 153 189 232 235 203 58 49 41 47 28 133 106 55 71 75 55 48 57 57 59 54
55 80 78 83 110 117 90 137 91 81 105 91 96 65 69 93 93 108 101 98 105 145 163 194 188 234 228 65 46 14 36 0 154 104 77 61 72 63 47 37 43 55 53
53 106 113 93 116 114 101 125 117 91 96 97 88 82 67 68 88 105 113 105 148 153 137 139 175 192 119 37 32 11 17 54 86 97 50 68 73 67 35 26 44 46 52
61 85 149 94 116 121 115 120 105 99 93 119 105 93 92 80 77 103 117 125 122 105 112 113 174 201 93 32 32 33 36 120 114 68 67 67 70 64 43 42 46 43 54
49 60 138 135 103 97 121 113 117 99 120 105 109 118 100 85 78 66 93 96 84 93 130 202 224 215 84 75 88 101 143 107 105 81 39 56 64 61 61 61 57 59 64
39 63 119 134 114 84 111 111 120 119 121 117 117 122 110 99 75 66 88 64 71 100 165 203 244 203 167 133 121 106 178 78 109 65 109 51 77 88 52 74 67 69 58
44 73 128 166 135 100 117 124 125 155 173 114 140 116 95 90 90 83 121 86 78 123 147 252 201 242 213 177 141 159 178 124 102 126 119 61 92 72 37 63 65 68 71
78 115 151 166 160 158 175 162 164 200 181 155 154 113 106 88 102 87 99 135 117 143 145 270 249 232 158 176 289 228 172 229 198 153 94 63 75 78 65 71 77 70 86
104 118 105 120 128 156 136 129 135 228 172 124 156 127 119 98 68 81 126 122 142 142 140 243 341 301 249 273 343 312 231 262 184 136 82 78 91 67 71 77 84 48 64
70 108 107 92 87 136 96 135 202 152 164 173 173 153 136 84 89 75 124 142 142 108 117 169 192 211 302 406 237 311 347 267 162 110 95 74 109 92 55 85 63 58 61
51 81 78 81 68 96 115 134 161 183 175 158 176 140 117 131 101 122 170 189 126 124 135 121 139 230 266 383 268 254 223 200 228 189 117 99 108 100 87 98 84 77 88
36 61 135 99 83 99 132 103 162 163 128 142 146 135 114 100 126 147 142 120 118 104 101 104 49 41 125 273 211 175 140 130 119 107 98 135 134 142 118 92 100 107 99
54 75 109 133 114 122 141 66 169 133 120 163 160 163 126 109 120 118 152 160 137 101 90 99 90 67 40 14 82 129 116 134 69 60 61 97 151 143 119 98 104 129 95